INTELSAT 33E DEB, 61988

Orbit data source: Space-Track

INTELSAT 33E DEB, 61988 is space debris in GEO originally from a launch on Wed, 24 Aug 2016 UTC launched from the French Guiana (FRGUI). Debris objects in space refer to the collection of defunct objects orbiting the Earth. Examples of debris include non-operational satellites, rocket bodies, and fragments generated from explosions, collisions, or faulty payload assembly.

Not visible in the next 10 days
Identifier
61988, 2016-053E
Orbit
GEO
Last TLE update
15 hours ago
Origin
Manufacturer
Boeing/ES
Mission
Spacecraft
Bus & Motor
Unknown
Mass
Unknown
Launch date (UTC)
2016-08-24 (9 years ago)
Launch vehicle
Unknown
Launch site
French Guiana (FRGUI)
Object type
Payload
Rocket body
Debris
Shape & HBR
Unknown
Radar Cross Section
RCS unknown

Expand to show TLE details & history

TLE from 15 hours ago
0 INTELSAT 33E DEB
1 61988U 16053E   25186.15816620  .00000076  00000-0  00000-0 0  9991
2 61988   0.8505 108.4225 0036403  65.9586 185.6561  0.99844986  2561
Epoch: 2025-07-05T03:47Z
TLE epoch observation values (Epoch: 2025-07-05T03:47:45.559Z)
Latitude
-0.81254°
Longitude
19.65827°
Altitude
36,058.829 km
Speed
3.059 km/s
True Right ascension
23h 59m 59s
True Declination
0° 48' 42"
Sunlit
Object was in daylight at epoch
Visualization orbit readout
Latitude
0.76781°
Longitude
-117.86756°
Altitude
35,803.486 km
Speed
3.078 km/s
Apparent Right ascension
15h 10m 30s
Apparent Declination
-4° 26' 39"
Sunlit
Object is in daylight
Visualization observer readout
Local Sidereal Time
06:33:09
Azimuth
65.83° ENE
Elevation
-32.305°
Doppler factor
1
Orbital elements
Apogee altitude
36,061.669 km
Perigee altitude
35,753.802 km
Semi-major axis
42,285.872 km
Eccentricity
0.00364
Inclination
0.8505°
RAAN
108.4225°
Arg. of periapsis
65.9586°
True anomaly
Unknown
Mean anomaly
185.6561°
Eccentric anomaly
Unknown
Mean motion
0.2496 °/min
Orbital period
1,442.29 mins
BSTAR
0
Loading historical data...
61988 neighbors
Loading maneuver chart data...
Loading SW <> Apogee altitude chart data...
Loading historical data...
Loading historical data...
Loading historical data...
Loading historical data...
Loading historical data...
Loading historical data...
Loading historical data...

INTELSAT 33E DEB Visibility

Observer location: undefined°, undefined°

INTELSAT 33E DEB is likely not visible in the next few days
Span
Click to sort rows by Start time (UTC) header in descending order
Start Az.
Max El. time (UTC)
Max El. Az.
Max El.
End time (UTC)
End Az.
|